Theta_e
317 316 318 317 318 317 316 316 317 317 317 317 317 317 317 317 318 318 319 319 319 318 319 322 324 323 319 313 313 328 351 352 332 321 316 317 317 315 311 316 315 317 318 322 323 324 326
315 316 316 316 317 316 316 316 316 316 317 316 317 317 317 318 318 318 319 318 318 318 319 323 323 322 314 306 322 327 325 323 319 315 316 318 318 317 314 317 313 320 318 321 321 322 326
315 315 315 315 315 316 316 315 315 316 316 316 317 317 317 317 317 317 318 317 316 317 319 323 323 321 316 309 323 327 320 314 317 316 315 320 322 315 315 313 321 321 314 318 319 321 324
314 314 314 315 316 316 316 316 316 316 316 316 317 316 316 317 317 317 316 316 316 317 319 323 323 320 310 323 323 322 320 316 317 317 318 321 321 315 315 315 317 313 312 306 316 318 323
314 314 315 316 316 315 315 316 316 316 315 316 316 316 316 316 316 315 314 314 317 320 322 323 319 317 316 331 322 322 323 316 314 313 316 323 318 314 316 308 304 309 304 309 313 316 317
315 315 316 315 315 315 314 315 315 315 315 315 315 315 315 315 314 313 313 314 319 322 324 326 323 313 320 321 319 321 323 321 313 313 313 313 313 309 307 302 298 304 306 311 311 314 315
316 316 316 315 314 314 314 314 314 315 315 315 315 315 314 314 313 312 310 309 313 318 323 319 315 315 318 323 324 318 322 319 312 308 304 309 306 303 307 308 309 312 310 311 316 318 314
316 316 315 315 314 315 315 314 314 314 315 315 314 314 314 313 312 311 309 306 310 315 308 317 319 322 324 324 316 317 321 312 307 304 307 305 304 312 314 313 311 309 312 311 316 319 315
316 315 315 315 314 314 314 314 314 314 314 314 314 314 313 312 311 311 311 313 321 320 308 313 317 317 317 320 314 312 314 312 306 304 305 303 310 316 313 310 309 307 305 311 312 318 318
315 315 315 314 314 314 314 314 314 313 313 313 313 314 313 310 307 308 305 315 319 318 300 306 310 315 317 318 311 319 316 311 307 304 306 307 313 312 310 308 309 300 310 311 313 312 304
315 315 315 314 314 314 314 313 313 313 312 313 313 313 311 309 305 306 310 316 317 312 292 312 311 319 316 312 313 313 317 311 305 306 306 306 309 309 308 309 311 305 311 308 307 306 303
315 315 315 314 314 314 313 313 313 312 312 313 313 312 311 308 306 310 314 311 311 298 295 308 311 310 310 311 313 315 312 313 313 308 308 308 314 311 310 313 313 313 307 305 304 299 293
315 314 314 314 314 314 314 313 313 312 312 312 311 309 308 309 301 308 309 307 298 294 309 306 306 309 308 307 310 311 307 305 302 297 299 306 308 311 312 306 309 307 302 295 293 293 293
314 314 314 313 313 313 313 313 313 312 312 311 308 307 308 310 308 308 307 299 293 303 303 309 308 309 305 308 308 308 305 302 306 304 300 299 298 307 311 306 303 303 301 297 292 293 297
313 313 313 313 313 313 313 313 312 312 311 310 308 310 309 313 312 309 302 294 296 302 307 307 309 306 304 308 308 306 305 303 305 306 298 299 300 311 312 312 309 304 300 305 298 300 296
313 313 312 312 313 313 313 313 312 312 311 309 305 307 309 313 317 309 300 295 301 307 308 307 301 305 304 305 305 303 303 308 307 309 309 304 298 307 311 311 311 307 309 299 297 292 291
312 312 311 312 312 313 313 313 313 312 310 309 306 306 314 315 317 305 294 297 303 308 308 304 303 303 307 307 306 303 303 308 310 308 310 307 301 304 308 304 303 304 301 302 301 298 292
311 311 311 311 312 312 312 312 312 310 309 307 305 298 315 319 305 304 297 300 302 306 309 308 308 307 308 309 307 304 303 307 312 310 305 308 302 301 304 309 312 307 304 304 297 297 299
311 310 310 311 311 311 312 311 311 310 309 304 299 302 312 316 300 301 304 303 304 305 306 307 306 310 311 306 303 308 310 313 312 310 306 308 303 298 300 305 309 306 306 304 304 301 297
310 310 309 309 310 311 311 311 310 310 310 305 301 300 306 307 309 304 302 303 303 309 308 309 308 311 309 306 307 305 309 314 313 312 321 315 302 301 296 302 306 303 307 306 301 296 297
310 310 309 308 308 309 310 310 310 309 309 306 304 302 305 299 302 301 305 306 302 303 309 311 306 309 307 303 306 305 310 313 315 317 315 309 301 302 303 306 307 308 307 306 302 301 299
309 309 309 308 308 308 309 310 310 310 309 306 304 300 301 297 302 303 304 305 305 305 308 309 306 310 309 306 309 308 311 312 312 310 310 307 303 303 301 307 306 305 309 309 309 307 304
308 308 309 309 308 308 308 309 310 309 309 304 307 309 301 297 298 298 302 302 307 307 310 313 310 310 309 313 315 313 313 314 310 311 307 307 305 300 295 304 304 300 305 306 307 310 308
308 308 308 308 308 308 308 308 309 310 310 306 304 305 300 295 300 301 301 304 307 307 307 310 312 311 313 315 317 314 314 313 314 313 314 309 307 302 297 303 293 304 312 312 311 313 313
308 308 308 308 308 308 308 308 308 310 310 307 307 305 301 294 298 300 299 299 303 305 307 310 313 315 314 312 309 307 305 308 311 312 313 313 308 303 297 296 300 307 310 311 308 309 315
308 308 308 308 309 309 308 308 309 310 309 308 306 309 304 297 298 301 298 301 299 300 304 309 314 315 313 307 307 298 300 306 304 307 310 310 312 306 300 295 295 304 315 318 315 303 316
308 307 308 308 308 308 308 308 309 309 308 309 306 310 306 297 301 302 297 295 301 300 302 307 305 310 311 303 299 300 297 307 301 302 305 305 305 300 299 298 302 313 318 317 303 305 317
307 307 307 307 307 307 308 308 309 308 309 309 306 310 306 299 300 303 304 299 297 298 299 302 304 310 307 303 301 301 300 303 303 306 304 305 303 298 302 298 296 317 318 311 314 318 320
307 307 307 307 307 307 308 308 308 308 309 310 303 308 310 303 301 306 306 307 306 304 299 300 301 306 310 305 307 307 302 303 305 301 310 304 309 309 308 307 316 318 313 318 319 316 317
Wind_Speed
20 20 20 20 19 20 21 21 22 21 22 23 23 22 22 23 24 24 22 21 21 21 18 17 12 10 6 4 14 3 8 9 7 5 10 13 14 11 13 7 4 8 10 15 17 20 18
20 20 20 20 21 21 21 22 22 22 22 22 22 22 22 22 23 23 22 21 21 21 17 13 9 7 3 7 9 10 9 7 8 7 9 14 10 11 12 13 7 4 9 13 13 17 16
19 20 20 20 20 21 21 22 22 23 22 23 23 23 23 23 24 25 24 23 23 21 15 10 7 5 6 19 2 8 12 8 10 9 10 14 14 9 11 10 7 5 9 13 10 20 19
19 19 20 19 18 19 20 21 22 22 22 23 23 24 24 24 25 25 24 24 24 21 14 8 6 4 10 10 17 13 11 9 10 10 13 13 11 11 6 8 3 5 7 6 9 11 12
19 19 17 18 18 18 19 20 21 22 22 22 23 24 24 25 25 25 26 30 25 15 9 6 5 3 11 9 5 11 9 11 10 10 11 15 11 8 9 5 4 5 6 13 5 5 8
16 16 17 17 18 18 19 19 21 22 22 23 23 24 25 25 25 24 27 29 4 2 5 7 9 4 8 10 8 10 7 10 10 11 12 10 5 4 5 2 7 7 5 14 11 11 8
17 17 17 17 18 18 19 19 21 22 23 23 24 25 26 27 26 21 15 7 3 1 5 10 8 9 18 9 8 9 12 11 11 7 9 8 3 7 12 12 12 10 11 9 6 10 7
16 17 17 18 19 19 20 20 20 22 23 24 24 24 26 28 29 22 6 4 8 10 15 14 20 23 23 21 10 13 13 12 10 9 8 6 9 13 16 17 11 10 11 13 13 13 9
16 17 17 18 19 19 19 20 21 21 23 24 24 24 26 28 33 9 7 12 15 20 9 23 23 20 21 17 12 12 10 12 8 9 12 11 10 19 20 17 12 12 8 15 13 13 9
16 16 17 19 19 20 20 21 22 22 23 24 24 24 23 30 6 7 7 12 18 11 4 13 11 18 18 19 9 16 14 12 8 15 14 11 15 21 20 18 11 7 6 6 12 20 10
16 16 18 18 19 21 21 21 22 22 24 25 24 23 22 13 11 6 7 16 17 4 5 9 10 10 10 19 8 11 17 12 14 10 9 14 16 18 20 16 8 8 8 6 6 4 5
15 17 18 18 19 21 22 22 22 22 23 26 26 23 21 9 6 13 14 17 2 2 10 9 12 13 17 13 15 8 19 12 10 12 14 12 13 15 16 12 11 6 3 5 7 1 1
16 17 18 17 18 20 22 22 23 24 24 27 28 27 15 8 8 1 9 5 1 7 8 7 16 20 20 10 18 18 20 18 16 11 11 13 20 16 15 8 9 5 4 2 3 2 7
16 17 17 17 18 19 21 22 23 25 26 28 30 34 11 11 11 11 3 1 7 12 24 17 18 9 17 17 16 19 17 17 18 16 6 9 13 19 15 10 11 8 10 7 6 4 8
16 16 17 18 19 20 21 22 23 26 28 32 32 5 8 8 14 4 2 6 7 13 18 19 19 15 12 19 12 18 15 19 18 19 14 10 14 13 12 6 10 11 6 10 5 5 3
15 16 17 18 19 20 21 22 24 26 28 35 8 6 9 7 15 6 3 7 10 22 23 21 22 20 21 20 19 20 19 20 18 21 18 14 7 14 10 10 13 12 8 2 4 2 5
16 17 17 18 17 19 21 22 23 25 28 34 4 5 11 15 10 3 6 8 14 20 21 20 25 27 23 7 18 14 19 19 23 21 23 19 7 15 11 9 9 2 4 4 7 6 6
15 15 16 17 17 20 21 22 23 23 26 10 7 5 6 14 4 5 8 9 15 19 20 23 23 22 21 7 9 12 16 19 21 22 22 22 6 11 15 8 13 9 9 10 7 4 1
14 14 16 17 17 18 19 21 20 19 14 8 7 6 8 7 6 9 11 20 24 20 21 23 24 19 15 8 8 10 10 16 20 24 23 15 13 10 6 8 12 15 9 9 7 5 4
15 14 15 16 18 18 19 20 20 19 14 6 6 5 4 3 7 11 14 17 19 20 22 24 24 11 14 8 10 12 15 14 21 23 25 13 7 10 8 10 11 11 13 8 9 6 6
15 15 14 16 17 18 18 20 21 22 21 3 5 5 7 6 7 17 14 15 22 22 19 15 15 8 15 13 13 10 13 7 15 23 20 14 8 7 8 7 3 9 6 8 8 9 9
16 15 14 14 16 18 18 18 20 23 30 5 5 5 6 10 10 13 12 15 19 22 16 12 18 13 19 7 4 6 10 6 6 4 16 7 7 5 2 2 5 6 15 15 17 13 7
17 17 17 15 15 17 18 17 18 18 18 5 6 7 2 7 8 9 10 23 15 19 14 16 15 5 8 7 7 6 8 12 8 3 5 10 7 5 5 1 6 7 5 5 8 15 16
17 17 17 16 15 16 17 17 16 16 11 6 6 9 6 8 9 8 21 23 15 13 6 18 13 6 6 10 10 5 8 9 8 9 5 6 6 5 4 3 6 7 8 5 16 13 16
17 17 17 16 16 15 15 16 16 15 14 7 8 5 6 7 10 13 21 21 16 14 9 10 10 3 10 9 6 5 4 4 6 8 7 6 6 7 5 6 4 5 8 3 4 3 9
18 17 17 17 16 15 14 15 15 14 14 7 10 7 6 5 3 12 15 14 7 11 10 12 10 1 6 1 1 2 2 3 2 4 4 13 10 8 4 6 0 8 6 6 6 4 5
18 17 17 17 17 16 14 14 15 15 15 8 7 9 5 6 10 8 5 8 9 9 5 4 12 6 4 2 3 1 6 2 6 3 5 3 5 6 6 3 9 9 14 12 6 9 8
17 17 16 16 16 16 15 14 13 14 14 8 8 10 4 5 12 7 6 7 9 5 5 10 9 9 5 2 2 3 4 8 6 8 17 8 3 1 4 5 5 15 8 6 3 5 9
17 16 14 14 14 14 14 14 13 12 12 11 5 8 8 4 8 15 13 12 9 6 5 5 4 6 5 5 6 5 3 4 2 5 14 6 2 4 2 5 4 4 6 12 8 6 7
Wind_Direction
11 10 9 10 6 1 0 358 355 351 350 348 345 341 338 334 331 329 328 326 323 324 323 320 318 328 309 243 248 246 100 106 137 163 223 237 254 260 261 292 124 103 103 102 110 117 128
10 9 8 4 4 0 356 353 351 349 345 344 341 338 335 331 329 326 324 320 318 318 318 315 315 327 268 254 248 173 154 158 194 191 219 240 247 255 275 284 105 108 126 123 131 114 109
9 8 6 4 359 354 352 351 347 344 342 339 338 336 333 329 326 324 320 317 313 309 307 300 304 277 256 242 239 167 163 189 204 201 231 240 253 276 283 304 114 146 115 123 102 118 117
4 3 360 356 354 352 347 345 343 341 338 336 335 333 330 328 324 322 319 313 306 298 289 274 277 263 251 258 236 239 187 189 227 243 234 259 257 260 264 307 132 136 129 121 143 119 154
357 356 351 351 347 348 346 342 341 338 336 334 333 330 328 325 322 321 319 310 304 284 257 250 235 206 264 274 211 241 188 183 210 248 257 256 273 253 316 295 252 158 197 128 130 172 148
346 345 345 345 347 341 342 340 339 336 334 332 330 328 325 323 321 323 320 301 272 312 209 221 265 334 251 232 172 217 216 210 192 230 247 244 272 232 286 278 203 189 219 151 151 201 165
339 338 342 338 340 338 336 338 338 335 332 329 328 326 323 320 317 325 338 340 296 213 232 221 188 231 298 238 186 189 208 216 200 218 210 237 215 238 242 247 252 201 182 126 220 210 136
338 336 339 335 336 336 333 333 336 333 329 327 326 324 322 318 313 314 283 248 235 286 303 276 269 248 259 261 210 191 190 194 200 205 202 228 216 241 245 251 227 240 155 181 224 182 123
335 333 333 333 335 332 332 330 330 331 326 325 323 323 323 320 312 296 225 257 295 297 281 279 251 260 244 253 201 184 186 193 194 211 212 214 214 236 244 256 240 246 176 208 166 178 153
334 331 330 335 333 331 331 331 327 328 325 322 321 322 326 329 312 345 283 327 337 354 302 263 217 224 245 233 199 182 197 191 196 206 221 218 235 228 240 251 227 245 270 283 160 148 176
333 332 331 333 333 330 329 328 325 327 325 319 318 319 321 322 302 288 315 335 313 355 290 237 207 174 184 214 191 193 186 207 219 195 198 218 224 229 237 246 239 215 260 243 264 193 164
334 333 332 328 332 330 327 327 324 326 324 316 314 315 323 309 208 247 301 301 279 298 252 288 157 161 183 199 212 211 181 210 237 232 225 233 221 230 229 241 255 234 211 288 252 153 50
332 331 330 331 334 331 329 328 326 327 324 316 312 306 296 282 233 348 349 310 189 228 294 257 154 160 177 179 198 225 182 193 216 204 236 222 238 247 233 203 235 186 144 285 352 1 223
330 330 333 339 338 332 330 329 329 328 326 318 313 305 255 209 223 261 244 246 232 238 238 284 316 203 183 190 196 223 189 192 220 234 216 218 242 235 236 198 193 201 164 156 193 197 242
328 333 338 339 335 333 331 330 332 329 328 320 316 272 254 220 210 228 150 217 207 241 257 260 282 278 207 194 176 204 210 196 205 223 225 206 241 253 220 166 167 227 182 191 183 237 324
330 333 337 337 335 335 333 333 334 332 331 320 309 279 252 191 156 160 175 239 232 244 271 284 283 289 288 206 192 190 221 193 199 215 225 250 216 235 214 169 238 156 154 213 345 213 286
327 330 332 332 335 336 337 338 338 336 335 321 252 276 274 139 148 165 219 228 236 258 273 277 281 289 289 307 197 196 213 194 197 204 223 234 210 258 176 191 190 124 163 165 166 152 187
322 326 330 330 334 337 337 337 338 339 336 351 301 271 145 132 169 205 235 250 260 268 272 279 276 270 277 316 311 229 215 194 190 201 223 224 196 237 210 183 173 194 177 163 125 272 223
315 322 330 329 333 335 335 335 338 338 356 326 293 277 275 229 220 243 253 244 259 260 263 274 280 263 273 278 310 297 305 216 190 193 221 215 231 243 292 201 185 197 214 172 150 121 236
314 318 325 328 328 333 336 336 334 333 334 329 278 288 239 247 252 251 269 279 270 251 260 268 278 299 315 299 273 278 290 285 204 195 209 193 220 170 201 204 169 198 208 176 160 144 222
311 311 315 324 326 330 336 337 335 331 327 279 240 264 4 315 312 325 307 297 275 281 269 277 277 296 293 296 301 273 276 336 319 191 200 199 198 194 213 245 268 207 195 209 206 208 160
304 303 305 313 322 328 333 335 337 339 330 211 298 349 341 294 279 279 274 281 260 267 272 291 336 216 250 301 3 340 354 23 255 307 186 187 190 125 111 359 241 249 197 211 235 215 244
296 302 305 302 311 322 331 333 337 347 347 326 345 337 281 291 304 309 308 315 285 256 274 308 317 299 286 29 300 301 294 285 270 296 212 136 128 101 161 4 339 329 272 228 246 212 205
292 292 295 300 305 311 322 328 334 341 356 313 297 301 290 295 307 332 304 332 319 358 40 294 300 299 3 336 307 311 285 288 333 355 30 103 94 108 148 120 249 246 301 334 78 41 41
294 296 295 294 298 302 309 322 329 333 331 312 292 289 296 299 307 318 334 319 329 331 321 288 301 328 10 3 322 323 342 360 331 311 48 68 89 64 124 184 219 276 264 140 161 60 33
286 292 298 299 292 296 299 311 322 327 329 315 291 255 305 287 240 346 320 1 349 348 335 357 231 231 59 319 158 289 261 74 250 305 134 66 78 99 80 94 92 237 145 112 38 59 0
285 284 287 292 294 299 298 303 315 324 327 321 277 289 274 288 264 343 358 330 332 335 306 341 340 323 17 195 307 230 275 268 322 105 324 11 65 115 117 115 285 355 287 76 105 231 9
281 279 282 286 289 291 297 297 307 319 326 332 291 287 272 291 288 271 333 324 330 5 339 330 317 7 351 350 208 240 227 264 237 166 169 186 163 109 124 93 286 348 321 109 186 54 107
277 276 279 282 286 292 297 301 296 312 323 332 275 331 331 265 279 303 289 276 282 291 296 327 296 9 352 346 13 316 274 269 32 78 319 30 1 123 209 141 173 180 355 1 45 65 30